TimeEDT,TemperatureF,Dew PointF,Humidity,Sea Level PressureIn,VisibilityMPH,Wind Direction,Wind SpeedMPH,Gust SpeedMPH,PrecipitationIn,Events,Conditions,WindDirDegrees,DateUTC
12:53 AM,59.0,53.1,81,30.16,10.0,South,4.6,-,N/A,,Clear,190,2013-05-08 04:53:00
1:53 AM,57.0,51.1,81,30.14,10.0,Calm,Calm,-,N/A,,Clear,0,2013-05-08 05:53:00
2:53 AM,55.0,52.0,89,30.14,10.0,Calm,Calm,-,N/A,,Clear,0,2013-05-08 06:53:00
3:53 AM,53.1,51.1,93,30.15,10.0,ESE,3.5,-,N/A,,Clear,120,2013-05-08 07:53:00
4:53 AM,51.1,48.9,92,30.14,2.0,Calm,Calm,-,N/A,,Clear,0,2013-05-08 08:53:00
5:00 AM,51.8,48.2,88,30.16,1.8,Calm,Calm,-,N/A,,Clear,0,2013-05-08 09:00:00
5:02 AM,51.8,48.2,88,30.16,3.0,Calm,Calm,-,N/A,,Clear,0,2013-05-08 09:02:00
5:53 AM,48.9,48.0,97,30.16,4.0,Calm,Calm,-,N/A,,Partly Cloudy,0,2013-05-08 09:53:00
6:30 AM,51.8,50.0,94,30.19,1.5,SE,5.8,-,N/A,,Mostly Cloudy,130,2013-05-08 10:30:00
6:34 AM,53.6,51.8,94,30.19,0.2,ESE,4.6,-,N/A,Fog,Fog,120,2013-05-08 10:34:00
6:53 AM,54.0,53.1,97,30.18,0.2,ESE,3.5,-,N/A,Fog,Fog,110,2013-05-08 10:53:00
7:26 AM,55.4,55.4,100,30.20,0.2,ESE,3.5,-,N/A,Fog,Fog,120,2013-05-08 11:26:00
7:46 AM,57.2,55.4,94,30.20,0.5,SE,3.5,-,N/A,Fog,Fog,130,2013-05-08 11:46:00
7:53 AM,57.0,55.9,96,30.19,0.5,SE,5.8,-,N/A,Fog,Fog,140,2013-05-08 11:53:00
8:03 AM,57.2,55.4,94,30.21,2.0,SE,5.8,-,N/A,,Overcast,130,2013-05-08 12:03:00
8:12 AM,57.2,55.4,94,30.21,1.0,SE,8.1,-,N/A,,Overcast,130,2013-05-08 12:12:00
8:23 AM,57.2,55.4,94,30.21,3.0,ESE,6.9,-,N/A,,Overcast,110,2013-05-08 12:23:00
8:53 AM,59.0,55.9,90,30.19,10.0,Calm,Calm,-,N/A,,Overcast,0,2013-05-08 12:53:00
9:35 AM,62.6,59.0,88,30.21,10.0,SE,5.8,-,N/A,,Overcast,130,2013-05-08 13:35:00
9:53 AM,63.0,59.0,87,30.19,10.0,ESE,8.1,-,N/A,,Mostly Cloudy,110,2013-05-08 13:53:00
10:04 AM,62.6,59.0,88,30.21,10.0,SSE,10.4,-,N/A,,Mostly Cloudy,150,2013-05-08 14:04:00
10:19 AM,62.6,57.2,82,30.22,10.0,SSE,8.1,-,N/A,,Mostly Cloudy,150,2013-05-08 14:19:00
10:53 AM,62.1,57.0,84,30.22,10.0,SE,9.2,-,N/A,,Overcast,140,2013-05-08 14:53:00
11:33 AM,64.4,59.0,83,30.21,10.0,SE,10.4,-,N/A,,Mostly Cloudy,140,2013-05-08 15:33:00
11:53 AM,66.0,61.0,84,30.19,10.0,SE,9.2,-,N/A,,Mostly Cloudy,130,2013-05-08 15:53:00
12:53 PM,64.0,57.9,80,30.18,10.0,SE,12.7,-,N/A,,Clear,130,2013-05-08 16:53:00
1:53 PM,66.0,57.9,75,30.16,10.0,SE,11.5,-,N/A,,Clear,140,2013-05-08 17:53:00
2:53 PM,68.0,59.0,73,30.14,10.0,SE,16.1,-,N/A,,Partly Cloudy,140,2013-05-08 18:53:00
3:53 PM,62.1,57.0,84,30.12,9.0,ESE,12.7,-,0.00,Rain,Light Rain,120,2013-05-08 19:53:00
4:17 PM,57.2,53.6,88,30.15,1.8,SE,10.4,23.0,0.05,Rain,Heavy Rain,130,2013-05-08 20:17:00
4:24 PM,57.2,55.4,94,30.14,3.0,ESE,8.1,-,0.06,Rain,Light Rain,120,2013-05-08 20:24:00
4:45 PM,57.2,55.4,94,30.14,10.0,SE,12.7,-,0.06,,Overcast,130,2013-05-08 20:45:00
4:53 PM,59.0,57.0,93,30.13,9.0,ESE,9.2,-,0.06,,Overcast,120,2013-05-08 20:53:00
5:53 PM,57.0,55.0,93,30.12,10.0,SE,10.4,-,0.00,,Mostly Cloudy,140,2013-05-08 21:53:00
6:02 PM,57.2,53.6,88,30.13,10.0,ESE,12.7,17.3,N/A,,Mostly Cloudy,120,2013-05-08 22:02:00
6:04 PM,57.2,53.6,88,30.12,10.0,SE,10.4,17.3,N/A,,Mostly Cloudy,130,2013-05-08 22:04:00
6:53 PM,57.0,55.0,93,30.10,10.0,SE,9.2,-,N/A,,Mostly Cloudy,130,2013-05-08 22:53:00
7:09 PM,57.2,55.4,94,30.11,10.0,SE,10.4,-,N/A,,Mostly Cloudy,130,2013-05-08 23:09:00
7:40 PM,57.2,55.4,94,30.11,10.0,SE,8.1,-,N/A,,Mostly Cloudy,130,2013-05-08 23:40:00
7:53 PM,57.0,55.0,93,30.09,10.0,SE,9.2,-,N/A,,Overcast,130,2013-05-08 23:53:00
8:23 PM,57.2,55.4,94,30.09,10.0,ESE,6.9,-,N/A,,Mostly Cloudy,120,2013-05-09 00:23:00
8:48 PM,57.2,55.4,94,30.09,10.0,ESE,5.8,-,N/A,,Mostly Cloudy,110,2013-05-09 00:48:00
8:53 PM,57.0,55.0,93,30.08,10.0,ESE,5.8,-,N/A,,Scattered Clouds,110,2013-05-09 00:53:00
9:25 PM,55.4,55.4,100,30.09,9.0,ESE,8.1,-,N/A,,Mostly Cloudy,120,2013-05-09 01:25:00
9:32 PM,55.4,53.6,94,30.09,9.0,ESE,9.2,-,N/A,,Mostly Cloudy,110,2013-05-09 01:32:00
9:53 PM,55.0,54.0,96,30.08,7.0,ESE,6.9,-,N/A,,Overcast,120,2013-05-09 01:53:00
10:53 PM,55.0,53.1,93,30.06,10.0,East,9.2,-,N/A,,Overcast,100,2013-05-09 02:53:00
11:53 PM,55.0,53.1,93,30.05,10.0,ESE,8.1,-,0.00,Rain,Light Rain,120,2013-05-09 03:53:00